Skip Page Navigation
NASA JPL Caltech
NASA Logo - Jet Propulsion Laboratory + View the NASA Portal
+ Center for Near-Earth Object Studies
JPL Home Earth Solar System Stars & Galaxies Technology
JPL Solar System Dynamics
BODIES ORBITS EPHEMERIDES TOOLS PHYSICAL DATA DISCOVERY FAQ SITE MAP
IMPORTANT: The SSD Announcement email list is now available. Major changes are coming in the near future, including possible hostname and/or URL changes. To be notified of such changes, subscribe to this email list.

Please visit this page for more details.


JPL Small-Body Database Browser
Search: [ help ]  
48255 (2001 VY20)
Classification: Main-belt Asteroid          SPK-ID: 2048255
Ephemeris | Orbit Diagram | Orbital Elements | Mission Design | Physical Parameters | Discovery Circumstances | Close-Approach Data ]

[ show orbit diagram ]
Orbital Elements at Epoch 2458600.5 (2019-Apr-27.0) TDB
Reference: JPL 18 (heliocentric ecliptic J2000)
 Element Value Uncertainty (1-sigma)   Units 
e .09105213532447862 4.2424e-08  
a 2.745081374853731 1.2813e-08 au
q 2.495135854033843 1.1845e-07 au
i 1.43219021884239 4.0586e-06 deg
node 299.0064802289594 0.00018972 deg
peri 84.98952497904858 0.00019114 deg
M 324.8299622577796 2.2435e-05 deg
tp 2458762.793675228675
(2019-Oct-06.29367523)
0.00010365 TDB
period 1661.235723161736
4.55
1.1631e-05
3.184e-08
d
yr
n .2167061513189907 1.5172e-09 deg/d
Q 2.995026895673619 1.3979e-08 au
  Orbit Determination Parameters
   # obs. used (total)      993  
   data-arc span      14979 days (41.01 yr)  
   first obs. used      1978-10-27  
   last obs. used      2019-10-31  
   planetary ephem.      DE431  
   SB-pert. ephem.      SB431-N16  
   condition code      0  
   norm. resid. RMS      .50948  
   source      ORB  
   producer      Otto Matic  
   solution date      2019-Nov-07 06:36:25  

Additional Information
 Earth MOID = 1.49827 au 
 Jupiter MOID = 2.42036 au 
 T_jup = 3.342 
[ show covariance matrix ]

Ephemeris | Orbit Diagram | Orbital Elements | Mission Design | Physical Parameters | Discovery Circumstances | Close-Approach Data ]

Physical Parameter Table
Parameter Symbol Value Units Sigma Reference Notes
absolute magnitude H 14.9   n/a MPO452828  
diameter diameter 4.375 km 0.288 urn:nasa:pds:neowise_diameters_albedos::2.0[mainbelt] (http://adsabs.harvard.edu/abs/2012ApJ...759L...8M)  
geometric albedo albedo 0.111   0.034 urn:nasa:pds:neowise_diameters_albedos::2.0[mainbelt] (http://adsabs.harvard.edu/abs/2012ApJ...759L...8M)  

48255 (2001 VY20)          Discovered 2001-Nov-09 by LINEAR at Socorro
Reference: 20020921/Numbers.arcLast Updated: 2004-04-19

[ show close-approach data ]
Alternate Designations
 2001 VY20 = 1978 UZ7 
Ephemeris | Orbit Diagram | Orbital Elements | Mission Design | Physical Parameters | Discovery Circumstances | Close-Approach Data ]
ABOUT SSD CREDITS/AWARDS PRIVACY/COPYRIGHT GLOSSARY LINKS
FirstGov
(server date/time)  
NASA Home Page
Site Manager:   Ryan S. Park
Webmaster  Alan B. Chamberlin